Flag Weather past 2 weeks in Kenora, Ontario, Canada

Now
-9 °F

Passing clouds.


Feels Like: -24 °F
Forecast: -9 / 6 °F
Wind: 7 mph from North

Location: Kenora

Current Time: Nov 26, 2014 at 7:20:53 AM

Latest Report: Nov 26, 2014 at 6:00 AM


Visibility: 12 mi

Pressure: 30.36 "Hg

Humidity: 84%

Dew point: -13 °F

Location of KenoraLocation

Historic Weather in Kenora — Graph

°F

Kenora temperature yesterday

Maximum temperature yesterday: 12 °F (at 2:00 PM)
Minimum temperature yesterday: 1 °F (at 4:00 AM)
Average temperature yesterday: 7 °F

Past Weeks' High & Low Weather Summary

 TemperatureHumidityPressure
High36 °F (Nov 23, 11:00 AM)100% (Nov 23, 7:00 AM)30.40 "Hg (Nov 23, 7:00 AM)
Low-8 °F (Nov 26, 4:46 AM)49% (Nov 13, 3:00 PM)29.43 "Hg (Nov 23, 4:00 AM)
Average14 °F81%29.96 "Hg
* Reported Nov 11 5:00 AM — Nov 26 5:00 AM, Kenora, Weather by CustomWeather, © 2014

Note: Actual official high and low records may vary slightly from our data, if they occured in-between our weather recording intervals... More about our weather records

Advertising

Kenora weather history for previous 24 hours

 ConditionsComfort  
Time TempWeatherWind HumidityBarometerVisibility
5:00 AM
Nov 26
-8 °FPassing clouds.7 mph84%30.34 "Hg12 mi
4:46 AM-8 °FPassing clouds.6 mph84%30.33 "Hg12 mi
4:00 AM-6 °FLight snow. Overcast.6 mph84%30.32 "Hg12 mi
3:00 AM-2 °FLight snow. Overcast.7 mph77%30.30 "Hg10 mi
2:00 AM0 °FLight snow. Overcast.8 mph84%30.27 "Hg10 mi
1:00 AM3 °FSnow. Mostly cloudy.6 mph85%30.24 "Hg8 mi
12:00 AM7 °FLight snow. Overcast.8 mph78%30.22 "Hg6 mi
11:00 PM
Nov 25
7 °FLight snow. Overcast.7 mph85%30.19 "Hg4 mi
10:00 PM9 °FLight snow. Ice fog.8 mph85%30.16 "Hg1 mi
9:00 PM9 °FLight snow. Ice fog.7 mph92%30.14 "Hg2 mi
8:00 PM10 °FLight snow. Ice fog.9 mph85%30.12 "Hg3 mi
7:00 PM10 °FLight snow. Overcast.8 mph85%30.10 "Hg3 mi
6:00 PM10 °FLight snow. Mostly cloudy.5 mph92%30.09 "Hg1 mi
5:00 PM10 °FLight snow. Overcast.3 mph85%30.07 "Hg10 mi
4:00 PM12 °FLight snow. Mostly cloudy.5 mph73%30.06 "Hg6 mi
3:00 PM12 °FLight snow. Overcast.3 mph73%30.03 "Hg8 mi
2:00 PM12 °FMore clouds than sun.2 mph67%30.02 "Hg15 mi
1:00 PM10 °FMore clouds than sun.No wind72%30.01 "Hg15 mi
12:00 PM10 °FBroken clouds.3 mph72%30.01 "Hg15 mi
11:00 AM9 °FPartly sunny.2 mph72%30.02 "Hg15 mi
10:00 AM7 °FPartly sunny.3 mph72%30.02 "Hg15 mi
9:00 AM5 °FPartly sunny.5 mph78%30.01 "Hg15 mi
8:00 AM5 °FPartly sunny.6 mph78%30.00 "Hg15 mi
7:00 AM3 °FPassing clouds.3 mph85%29.98 "Hg15 mi
Weather by CustomWeather, © 2014

See weather overviewHow to use our weather pages